Regional Weather Roundup
Issued by NWS Huntsville, AL

Home | Current Version | Previous Version | Text Only | Print | Product List | Glossary On
Versions: 1 2 3 4 5 6 7 8 9 10 11 12 13 14 15 16 17 18 19 20 21 22 23 24 25 26 27 28 29 30 31 32 33 34 35 36 37 38 39 40 41 42 43 44 45 46 47 48 49 50
000
ASUS44 KHUN 192210
RWRHUN

WEATHER ROUNDUP FOR THE TENNESSEE VALLEY
NATIONAL WEATHER SERVICE HUNTSVILLE AL
400 PM CST FRI DEC 19 2014

ALZ001>004-192300-
NORTHWEST ALABAMA

CITY           SKY/WX    TMP DP  RH WIND       PRES   REMARKS
COURTLAND HCN    N/A     43 N/A N/A NE5         N/A
RUSSELLVILLE     N/A     41 N/A N/A MISG        N/A
SHOALS AIRPORT CLOUDY    44  30  57 N5        30.21R
SHOALS TVA RES   N/A     43 N/A N/A MISG        N/A
$$

ALZ005>007-016-192300-
NORTH CENTRAL ALABAMA

CITY           SKY/WX    TMP DP  RH WIND       PRES   REMARKS
CULLMAN AG STN   N/A     43 N/A N/A MISG        N/A
DECATUR AP     CLOUDY    42  31  64 N9        30.20S
HUNTSVILLE AP  CLOUDY    44  32  62 N8        30.19R
HUN NWS/UAH      N/A     42  30  62 N8          N/A
MERIDIANVILLE  CLOUDY    41  30  65 N8        30.19S
REDSTONE ARSN  CLOUDY    43  32  65 N8        30.18R
VINEMONT AP    FAIR      40  31  69 N6        30.17S
$$

ALZ008>010-192300-
NORTHEAST ALABAMA

CITY           SKY/WX    TMP DP  RH WIND       PRES   REMARKS
ALBERTVILLE    CLOUDY    41  37  87 N8        30.14R
FORT PAYNE     CLOUDY    43  28  56 N5        30.14S
SCOTTSBORO AP  CLOUDY    45  32  61 CALM      30.17S
VALLEY HEAD      N/A     45 N/A N/A MISG        N/A
$$

TNZ076-096-097-192300-
SOUTHEASTERN MIDDLE TENNESSEE

CITY           SKY/WX    TMP DP  RH WIND       PRES   REMARKS
TULLAHOMA      CLEAR     37  27  65 N7        30.19S WCI  32
WINCHESTER     CLEAR     39  28  65 N7        30.18S WCI  34
$$

...SURROUNDING SITES...

CITY           SKY/WX    TMP DP  RH WIND       PRES   REMARKS
ATLANTA        CLOUDY    51  34  52 NW9       30.10R
ANNISTON       CLOUDY    48  33  56 CALM      30.13R
BIRMINGHAM     CLOUDY    45  36  70 N9        30.17R
CHATTANOOGA    CLOUDY    46  28  49 N6        30.16S
CORINTH        MOCLDY    43  32  65 NE8       30.20R
DALTON         CLOUDY    43  32  65 CALM      30.14F
GADSDEN        CLOUDY    46  32  57 N7        30.14S
GOLDEN TRNGL   CLOUDY    48  37  66 N8        30.16S
HALEYVILLE     FAIR      40  34  79 CALM      30.19F
JACKSON TN     CLOUDY    43  30  60 NE6       30.21F
LEWISBURG      CLOUDY    39  26  60 NE5       30.21S
MEMPHIS        CLOUDY    44  34  67 NE7       30.21R
MURFREESBORO   FAIR      40  28  62 N6        30.24R
NASHVILLE      MOCLDY    40  28  62 NE6       30.24R
OXFORD MS      FAIR      41  36  81 NE5       30.20S
ROME           CLOUDY    47  32  56 N6        30.14R
SAVANNAH       CLOUDY    39  28  65 N6        30.21S WCI  35
TUPELO         CLOUDY    45  36  70 NE7       30.19R
TUSCALOOSA     LGT RAIN  47  38  71 N6        30.16S
$$

...GULF COAST WEATHER...

CITY           SKY/WX    TMP DP  RH WIND       PRES   REMARKS
GULFPORT       LGT RAIN  50  48  93 NE10      30.07F FOG
PASCAGOULA     RAIN      50  48  93 NE9       30.09F FOG
MOBILE         RAIN      50  47  89 NE7       30.12R FOG
GULF SHORES    RAIN      52  46  82 N5        30.11R
PENSACOLA      CLOUDY    53  45  74 N6        30.10R
DESTIN         CLOUDY    54  46  74 NE6       30.07F
PANAMA CITY    CLOUDY    52  48  87 NE6       30.07F
APPALACHICOLA  CLOUDY    61  47  59 E3        30.07R
$$




USA.gov is the U.S. government's official web portal to all federal, state and local government web resources and services.